This is the latest recevied weather packets stored in our database for station/object KJ6APE. If no packets are shown the sender has not sent any weather packets the latest 10 day(s).
| Time | Temp. | Humidity | Pressure | Rain* | Wind** | Luminosity | Snow |
|---|---|---|---|---|---|---|---|
| 1777487457 | 24.44° C | 42% | 1018.3 hPa | 0 mm | - | 866 W/m² | - |
| 1777487154 | 23.89° C | 43% | 1018.4 hPa | 0 mm | - | 856 W/m² | - |
| 1777486850 | 23.89° C | 43% | 1018.5 hPa | 0 mm | - | 844 W/m² | - |
| 1777486547 | 22.78° C | 45% | 1018.2 hPa | 0 mm | - | 832 W/m² | - |
| 1777486245 | 22.22° C | 44% | 1018.3 hPa | 0 mm | - | 819 W/m² | - |
| 1777485942 | 22.22° C | 46% | 1018.4 hPa | 0 mm | - | 808 W/m² | - |
| 1777485638 | 22.22° C | 48% | 1018.5 hPa | 0 mm | - | 796 W/m² | - |
| 1777485333 | 22.22° C | 48% | 1018.4 hPa | 0 mm | - | 782 W/m² | - |
| 1777485030 | 22.22° C | 47% | 1018.5 hPa | 0 mm | - | 766 W/m² | - |
| 1777484727 | 22.22° C | 47% | 1018.5 hPa | 0 mm | - | 753 W/m² | - |
| 1777484423 | 21.67° C | 47% | 1018.5 hPa | 0 mm | - | 737 W/m² | - |
| 1777484120 | 21.67° C | 48% | 1018.6 hPa | 0 mm | - | 724 W/m² | - |
| 1777483816 | 21.11° C | 48% | 1018.8 hPa | 0 mm | - | 707 W/m² | - |
| 1777483514 | 21.11° C | 49% | 1018.7 hPa | 0 mm | - | 691 W/m² | - |
| 1777483208 | 21.11° C | 50% | 1018.7 hPa | 0 mm | - | 675 W/m² | - |
| 1777482905 | 21.11° C | 49% | 1018.7 hPa | 0 mm | - | 659 W/m² | - |
| 1777482600 | 21.11° C | 49% | 1018.7 hPa | 0 mm | - | 642 W/m² | - |
| 1777482297 | 20.56° C | 49% | 1018.8 hPa | 0 mm | - | 625 W/m² | - |
| 1777481995 | 21.11° C | 50% | 1018.7 hPa | 0 mm | - | 607 W/m² | - |
| 1777481693 | 20.56° C | 51% | 1018.9 hPa | 0 mm | - | 589 W/m² | - |
| 1777481389 | 20.56° C | 50% | 1018.9 hPa | 0 mm | - | 572 W/m² | - |
| 1777481086 | 20.56° C | 50% | 1019 hPa | 0 mm | - | 552 W/m² | - |
| 1777480782 | 20° C | 52% | 1019.1 hPa | 0 mm | - | 532 W/m² | - |
| 1777480479 | 20° C | 53% | 1019 hPa | 0 mm | - | 513 W/m² | - |
| 1777480175 | 19.44° C | 56% | 1019.1 hPa | 0 mm | - | 493 W/m² | - |
* Rain latest hour (hover to see other rain measurements)
** Current wind speed in m/s (hover to see current wind gust speed)